Temp
85 88 90 87 85 87 85 86 81 86 87 93 96 99 100 103 102 103 104 103 101 100 100 100 98 98 99 100 98 97 93 91 90 90 90 89 85 84 84 82 84 84 82 84
80 87 87 85 89 88 88 89 88 89 87 100 101 103 101 101 101 101 102 103 102 99 98 96 95 95 96 96 96 95 92 90 90 90 89 86 85 85 84 81 78 81 83 83
71 83 83 76 84 88 88 90 90 82 90 98 97 98 99 100 102 102 103 105 104 101 96 94 94 94 94 94 94 92 90 90 89 89 86 85 84 80 79 77 79 79 80 81
73 77 65 83 94 93 89 90 93 92 94 96 97 100 102 103 101 101 104 104 105 105 99 96 96 94 94 94 91 90 89 89 88 85 83 82 80 77 76 76 77 76 78 81
69 71 78 83 87 88 85 84 94 92 94 97 99 99 97 103 104 103 104 104 103 106 101 96 95 94 93 91 90 90 89 86 82 82 80 77 76 77 78 77 78 79 80 80
72 67 64 81 92 97 94 79 94 95 93 95 96 87 93 100 104 104 104 103 101 104 100 96 94 93 91 89 89 88 87 83 81 81 80 79 79 79 79 79 77 82 79 80
68 68 76 89 94 97 74 78 95 97 96 95 92 96 99 100 95 97 98 98 99 99 96 93 93 92 89 88 87 89 88 86 83 83 81 81 80 80 77 77 78 78 78 79
69 65 63 90 90 80 88 95 96 97 98 97 98 99 95 93 92 93 94 94 95 93 90 90 90 89 87 86 87 89 87 85 84 83 82 78 77 76 78 78 76 76 77 77
72 72 84 90 88 94 96 90 93 92 95 96 96 93 92 90 90 90 91 91 91 88 86 88 88 87 82 83 85 85 83 81 80 77 76 76 74 77 74 78 76 76 73 73
75 80 83 87 92 94 96 91 94 96 95 96 96 92 89 89 88 88 87 86 87 85 83 82 83 82 81 81 81 79 79 78 80 78 78 78 79 81 74 73 73 72 68 74
75 80 84 87 90 92 95 94 92 95 94 94 92 89 88 86 84 85 83 84 84 81 80 80 81 81 82 82 83 82 81 80 79 75 76 71 63 60 69 61 62 70 77 73
72 81 82 84 91 94 93 91 91 92 91 91 90 86 85 83 83 83 83 83 81 80 80 80 80 80 81 83 82 81 81 82 81 79 71 70 68 69 49 51 49 50 51 67
71 78 81 82 89 94 92 90 92 91 89 87 87 86 85 82 82 74 81 81 80 79 80 79 79 78 80 81 82 80 80 77 75 74 74 71 72 71 68 58 49 46 49 51
73 77 75 81 86 90 91 90 84 90 89 88 86 85 83 81 80 81 80 81 82 81 80 79 78 77 80 79 78 78 78 63 73 73 74 73 74 73 72 71 69 68 53 54
72 80 80 83 88 88 90 89 86 85 85 83 85 83 83 81 79 79 80 81 80 79 78 78 77 76 78 79 78 74 75 77 79 82 82 76 76 77 79 72 73 71 66 57
72 74 83 82 85 86 87 85 84 83 84 84 83 82 82 81 79 80 80 81 78 77 78 77 76 78 78 79 79 80 78 67 72 79 77 76 76 76 74 74 72 72 71 69
68 65 78 82 82 83 84 86 85 84 83 82 81 81 81 80 79 78 79 81 79 79 79 78 78 80 81 81 81 84 82 78 68 78 78 78 74 79 75 71 70 74 74 72
67 62 81 84 82 83 84 85 84 83 81 81 81 81 80 79 77 77 79 80 80 79 81 80 80 79 79 80 80 85 85 83 81 83 83 76 76 75 72 70 75 74 74 67
66 66 75 79 82 81 81 81 80 80 80 81 81 79 79 79 79 79 80 79 78 76 76 78 68 75 78 72 72 85 86 86 84 83 84 73 82 78 78 78 77 77 73 71
68 72 73 73 75 76 77 79 79 78 79 79 79 78 77 78 78 78 78 77 79 80 78 77 77 79 78 73 69 85 85 85 85 84 84 82 75 77 71 65 76 76 73 73
63 69 72 73 74 75 76 76 76 74 75 77 76 76 76 77 78 78 76 78 76 75 78 67 80 83 82 76 78 85 84 83 85 82 79 76 77 76 70 71 72 71 72 64
62 63 64 66 68 69 71 73 73 73 73 74 75 76 75 75 76 77 79 78 78 56 77 81 80 64 76 65 80 81 81 79 76 75 74 68 70 76 73 74 73 72 68 72
60 62 64 65 65 66 69 69 70 71 69 70 71 71 75 77 79 76 74 77 78 71 79 75 61 61 61 77 77 79 77 75 75 78 72 70 74 73 71 70 72 74 72 70
59 62 64 66 67 66 65 67 69 69 69 69 69 71 72 74 76 78 76 62 58 66 76 72 66 57 51 75 78 77 74 73 72 71 70 61 76 77 77 76 72 75 72 65
63 65 65 65 66 67 68 69 71 71 71 71 70 72 74 76 72 76 74 73 58 67 76 54 56 57 74 82 82 81 74 77 76 77 78 78 78 77 75 75 74 73 73 75
67 67 67 69 72 73 74 75 73 71 73 71 73 76 76 76 76 73 74 67 70 64 75 74 77 77 80 81 82 82 81 80 79 80 78 78 79 74 74 73 76 77 78 78
70 59 69 71 75 75 76 74 74 74 74 72 72 74 74 77 72 73 64 76 77 74 71 77 79 74 83 81 81 81 80 81 66 81 81 80 78 79 79 78 78 78 78 77
MSLP
992.57 991.92 991.69 991.95 992.53 992.67 992.29 992.21 991.73 991.87 991.61 991.64 991.79 992.08 992.57 993.28 993.75 993.98 994.26 994.91 995.73 996.32 996.73 997.40 998.21 998.95 999.58 1000.39 1001.39 1002.53 1003.61 1004.60 1005.40 1006.09 1006.63 1007.23 1007.97 1008.76 1009.37 1009.96 1010.61 1011.23 1011.87 1012.19
992.64 992.54 992.01 991.06 991.09 991.55 991.54 991.45 991.52 991.86 991.39 991.44 991.72 992.09 992.33 992.81 993.49 993.68 994.16 994.67 995.28 996.22 997.03 997.77 998.65 999.43 1000.00 1000.52 1001.25 1002.26 1003.43 1004.20 1004.93 1005.59 1006.15 1006.87 1007.73 1008.36 1009.07 1010.13 1010.88 1011.18 1011.36 1011.50
992.60 992.75 992.25 991.25 990.12 990.26 990.69 991.16 991.18 991.43 991.77 991.93 991.64 991.69 992.00 992.69 992.99 993.37 993.61 993.90 994.45 995.63 996.97 998.07 998.84 999.61 1000.12 1000.81 1001.63 1002.39 1003.26 1004.09 1004.65 1005.34 1006.11 1006.95 1007.68 1008.53 1009.19 1010.04 1010.59 1010.88 1011.05 1011.50
993.47 993.29 991.51 989.16 990.27 990.26 990.29 990.64 990.99 991.29 991.54 991.73 991.89 991.91 992.20 992.63 993.06 993.32 993.47 993.84 994.26 994.82 996.28 997.72 998.72 999.57 1000.18 1000.95 1001.71 1002.47 1003.12 1003.77 1004.42 1005.43 1006.25 1007.02 1007.75 1008.40 1009.05 1009.60 1010.03 1010.73 1011.02 1011.18
993.70 992.31 991.06 990.16 989.67 989.50 989.88 990.33 990.87 991.12 991.54 991.81 992.17 992.42 992.22 992.75 992.89 993.15 993.53 994.08 994.49 994.61 995.96 997.42 998.45 999.35 1000.00 1000.86 1001.64 1002.20 1002.83 1003.86 1004.91 1005.57 1006.17 1006.87 1007.36 1007.85 1008.53 1009.28 1009.71 1009.67 1010.54 1011.34
993.93 992.04 990.02 990.19 989.75 989.95 990.18 989.46 990.45 990.90 991.27 991.51 992.13 991.79 991.91 992.74 992.69 992.99 993.40 993.93 994.79 994.91 996.28 997.62 998.62 999.58 999.99 1000.66 1001.37 1002.11 1003.07 1004.13 1005.07 1005.58 1005.93 1006.56 1007.07 1007.51 1007.88 1008.25 1008.68 1009.98 1010.78 1010.91
994.23 992.65 991.50 990.26 989.93 990.18 990.11 990.62 990.30 990.51 990.87 991.13 991.10 991.40 992.21 992.84 993.37 993.65 994.30 994.80 995.27 996.02 996.96 998.11 998.92 999.93 1000.65 1001.23 1001.80 1002.53 1003.35 1004.45 1005.37 1005.81 1006.12 1006.91 1007.58 1008.17 1009.18 1009.70 1009.54 1009.25 1010.43 1010.57
994.59 993.46 992.15 991.51 990.91 990.55 990.50 990.41 990.51 990.52 990.39 990.63 990.90 991.67 992.94 994.06 994.47 994.83 995.29 995.73 996.30 996.89 998.21 999.37 999.99 1000.35 1001.39 1001.88 1002.34 1002.91 1004.32 1004.91 1005.42 1006.27 1006.61 1006.46 1007.96 1009.24 1009.75 1010.37 1010.80 1010.59 1010.56 1010.71
993.77 993.06 993.02 992.40 991.88 991.11 991.13 991.44 991.35 991.50 991.69 991.67 991.85 992.68 993.73 994.44 995.26 995.97 996.35 996.82 997.74 998.49 999.37 1000.21 1000.82 1001.24 1001.99 1002.75 1003.08 1003.61 1004.33 1005.08 1006.20 1005.15 1007.59 1008.09 1008.23 1009.07 1009.89 1010.52 1010.75 1010.53 1011.30 1011.43
993.78 993.22 993.00 992.89 992.29 991.85 991.59 992.32 992.36 992.07 992.19 992.10 992.18 993.43 994.51 995.33 996.09 996.77 997.48 998.28 999.21 999.91 1000.19 1001.26 1002.18 1002.71 1003.03 1003.70 1004.21 1004.49 1004.35 1005.12 1006.39 1006.65 1007.62 1007.93 1008.18 1008.75 1008.77 1009.97 1010.36 1010.82 1010.92 1011.33
993.46 993.73 993.03 992.56 992.50 992.30 991.75 992.25 992.94 992.67 992.59 992.73 993.43 994.45 995.43 996.41 997.32 997.99 998.63 999.52 1000.27 1001.12 1001.53 1002.17 1002.65 1003.08 1003.58 1003.75 1004.02 1004.81 1005.18 1005.57 1006.42 1007.17 1007.91 1008.60 1009.75 1010.72 1010.48 1010.52 1011.22 1010.81 1010.71 1010.99
994.28 993.83 993.27 992.54 992.18 991.79 991.89 992.58 993.07 992.99 993.35 993.96 994.59 995.59 996.74 997.75 998.61 999.23 999.59 1000.30 1001.13 1001.77 1001.92 1002.51 1002.94 1003.24 1003.41 1003.84 1004.47 1005.09 1005.52 1005.94 1006.78 1007.60 1008.37 1009.11 1010.01 1010.46 1011.10 1011.34 1011.21 1011.05 1011.77 1011.31
996.48 995.09 994.45 993.67 992.24 991.85 992.03 992.96 993.28 993.67 994.41 995.02 995.84 996.84 997.74 998.53 999.43 1000.28 1000.65 1001.10 1001.46 1002.06 1002.66 1003.01 1003.75 1003.84 1004.40 1004.27 1004.51 1004.79 1005.10 1005.93 1006.41 1007.24 1008.17 1008.36 1008.72 1009.94 1010.61 1011.89 1011.97 1011.82 1012.19 1012.43
998.28 996.49 995.53 994.43 992.56 992.47 992.84 993.47 994.03 994.49 995.31 995.95 996.73 997.82 998.76 999.61 1000.25 1000.61 1001.01 1001.43 1001.77 1002.35 1002.81 1003.57 1004.13 1004.54 1005.01 1005.48 1005.65 1005.97 1005.70 1006.68 1006.37 1007.41 1007.39 1008.28 1008.55 1009.14 1010.07 1010.69 1011.41 1012.83 1013.21 1013.63
998.01 996.79 995.85 994.89 993.49 993.42 993.65 994.01 994.53 995.17 996.07 996.97 997.94 998.56 999.26 999.92 1000.64 1001.40 1001.89 1002.18 1002.63 1003.05 1003.51 1003.90 1004.47 1004.99 1005.42 1005.54 1005.91 1006.35 1006.02 1006.53 1006.42 1006.19 1006.43 1007.39 1008.16 1008.75 1008.85 1009.73 1010.59 1011.99 1013.06 1014.31
998.48 997.52 995.08 994.61 993.70 993.91 994.25 994.98 995.35 996.11 996.62 997.58 998.43 998.99 999.78 1000.62 1001.41 1001.89 1002.31 1002.69 1003.06 1003.35 1003.81 1004.40 1004.71 1005.17 1005.63 1005.61 1005.96 1006.06 1006.19 1006.44 1006.09 1006.48 1007.16 1007.35 1007.63 1008.36 1009.11 1009.71 1010.59 1011.21 1012.07 1013.06
998.42 997.31 995.11 993.79 994.12 994.47 995.13 995.45 996.14 996.81 997.50 998.35 999.09 999.74 1000.43 1001.08 1001.71 1002.23 1002.58 1002.84 1003.43 1003.71 1004.23 1004.49 1004.73 1005.16 1005.44 1005.54 1005.63 1005.41 1005.90 1006.65 1006.47 1006.41 1006.56 1006.95 1007.64 1008.02 1009.03 1009.92 1010.12 1010.38 1011.09 1012.17
998.58 997.83 995.14 994.75 995.00 995.04 995.52 996.26 996.98 997.70 998.50 999.07 999.49 1000.01 1000.70 1001.24 1001.78 1002.27 1002.57 1002.96 1003.49 1004.02 1004.24 1004.82 1005.19 1005.57 1005.75 1005.95 1006.08 1005.56 1005.35 1005.67 1006.24 1005.66 1005.91 1007.05 1007.26 1007.81 1008.56 1009.19 1009.54 1009.80 1010.60 1012.39
998.17 997.41 995.87 995.64 995.49 996.08 996.84 997.69 998.50 999.09 999.41 999.73 1000.03 1000.47 1001.25 1001.75 1002.07 1002.37 1002.70 1003.09 1003.60 1004.14 1005.03 1005.54 1006.03 1005.84 1006.03 1006.59 1006.62 1005.44 1005.37 1005.44 1005.50 1005.99 1005.92 1006.76 1007.15 1007.58 1008.10 1008.49 1009.07 1009.66 1011.00 1012.43
997.63 997.31 997.09 997.38 997.96 998.54 998.93 999.40 999.70 999.87 1000.27 1000.57 1000.93 1001.21 1001.67 1002.05 1002.37 1002.74 1002.97 1003.43 1003.67 1003.99 1005.24 1005.89 1005.97 1005.82 1006.14 1006.71 1006.76 1005.30 1005.38 1005.51 1005.55 1005.62 1005.99 1006.52 1007.60 1007.79 1008.61 1009.03 1009.13 1010.02 1010.99 1011.93
998.66 999.08 999.21 999.50 999.75 1000.27 1000.71 1000.58 1000.56 1000.87 1001.32 1001.37 1001.47 1001.79 1002.10 1002.43 1002.81 1003.08 1003.29 1003.37 1004.79 1005.47 1005.43 1006.23 1005.54 1005.23 1005.59 1006.33 1006.23 1005.21 1005.31 1005.79 1005.81 1006.01 1006.48 1007.19 1007.94 1008.14 1008.49 1009.00 1009.60 1010.19 1010.91 1012.32
1000.93 1001.16 1001.57 1001.74 1001.50 1001.27 1001.47 1001.43 1001.71 1001.85 1002.21 1002.21 1002.48 1002.63 1002.79 1003.10 1003.11 1003.45 1003.57 1003.91 1004.77 1005.95 1005.50 1005.19 1005.39 1006.45 1006.12 1006.61 1005.87 1005.68 1006.14 1006.69 1007.00 1007.24 1007.40 1007.81 1008.40 1008.41 1008.81 1009.13 1010.17 1010.91 1011.55 1012.18
1002.50 1002.64 1002.13 1001.98 1002.15 1002.41 1002.55 1002.65 1002.79 1002.85 1003.04 1003.41 1003.54 1003.49 1003.29 1003.19 1003.11 1003.47 1004.03 1004.94 1005.08 1005.64 1005.33 1005.93 1006.85 1006.95 1006.94 1006.41 1006.18 1006.36 1006.93 1007.29 1007.36 1007.47 1007.93 1008.31 1008.42 1008.78 1009.27 1009.81 1010.29 1010.82 1011.71 1012.49
1003.52 1003.09 1002.87 1002.70 1002.74 1003.07 1003.28 1003.39 1003.32 1003.64 1004.09 1004.30 1004.25 1004.24 1004.09 1003.85 1003.92 1004.47 1004.99 1005.60 1006.04 1006.05 1005.95 1006.48 1006.94 1007.32 1007.51 1006.35 1005.91 1006.41 1006.99 1007.22 1007.73 1007.93 1008.39 1008.38 1008.12 1008.41 1008.98 1009.72 1010.41 1010.72 1011.69 1012.58
1003.77 1003.47 1003.32 1003.42 1003.49 1003.52 1003.49 1003.70 1003.85 1004.10 1004.25 1004.40 1004.75 1004.75 1004.65 1004.73 1004.69 1004.80 1005.44 1005.85 1006.61 1006.41 1006.35 1007.39 1007.44 1007.42 1006.93 1005.69 1005.77 1006.03 1006.89 1007.07 1007.54 1007.60 1008.03 1008.30 1008.31 1008.88 1009.58 1010.13 1010.67 1011.28 1011.64 1011.61
1004.10 1004.05 1003.89 1003.59 1003.24 1003.23 1003.48 1003.60 1003.65 1004.11 1004.09 1004.34 1004.65 1004.76 1004.82 1005.19 1005.51 1005.83 1005.74 1006.30 1006.52 1006.66 1006.45 1007.12 1006.85 1006.84 1006.09 1006.09 1005.95 1006.05 1006.27 1007.12 1007.37 1007.44 1007.97 1008.38 1008.42 1009.01 1009.43 1009.61 1009.88 1010.34 1010.58 1010.97
1003.91 1003.69 1003.47 1003.38 1003.45 1003.75 1003.89 1004.00 1003.83 1004.05 1004.20 1004.40 1004.79 1005.33 1005.52 1005.10 1005.89 1005.98 1005.89 1005.93 1005.86 1006.08 1006.57 1006.46 1006.61 1006.62 1006.11 1006.04 1006.39 1006.51 1006.44 1006.88 1007.65 1007.42 1007.51 1008.06 1008.66 1008.88 1009.07 1009.45 1009.99 1010.39 1010.66 1011.17
Wind_Speed
26 25 23 24 25 26 30 28 25 20 25 22 16 14 9 11 12 10 11 7 8 10 9 9 11 12 12 13 14 14 14 14 14 13 13 13 9 8 9 9 11 11 12 10
25 24 26 22 27 25 29 30 27 26 25 17 16 19 17 14 14 12 8 12 10 12 13 12 11 12 11 12 12 13 13 14 13 12 12 8 11 11 10 9 8 10 10 10
21 22 22 26 28 25 26 26 21 24 24 22 22 12 9 14 14 13 13 11 11 13 13 12 13 12 14 13 12 12 13 13 12 12 11 11 10 8 7 9 8 8 8 8
15 20 28 17 23 26 23 21 21 21 18 18 18 17 14 16 15 17 13 13 10 10 14 15 15 14 13 14 13 15 14 14 13 12 11 11 11 10 10 10 9 7 7 8
17 20 17 23 4 27 26 27 23 22 21 18 16 14 19 18 16 17 13 13 8 9 13 14 15 15 14 15 15 15 15 13 11 13 13 13 13 14 13 10 10 11 10 8
15 23 31 16 20 9 12 15 23 20 21 19 17 18 15 16 20 19 15 7 9 7 11 13 13 15 16 16 16 15 14 14 14 15 14 14 14 14 12 12 13 9 8 8
15 16 19 12 13 14 14 8 15 17 18 20 20 16 14 2 7 6 3 5 7 9 10 12 14 14 14 14 14 13 13 13 12 12 11 11 8 9 8 8 9 9 10 8
17 21 23 9 12 19 10 12 14 10 8 8 15 16 7 7 6 7 8 11 11 12 12 11 12 13 13 11 11 13 11 11 11 8 4 8 11 7 7 7 6 5 8 7
18 16 8 11 21 10 6 6 10 3 10 7 10 10 10 9 10 10 12 13 13 14 15 13 12 13 14 12 12 12 12 10 8 15 9 8 9 11 7 9 6 7 5 5
18 26 22 23 14 19 9 7 11 9 9 8 6 10 11 11 13 14 14 15 15 16 17 15 13 12 13 12 10 10 13 11 10 11 11 10 9 10 9 6 6 7 5 6
18 20 21 24 25 24 20 10 10 11 7 8 12 14 15 14 15 14 15 15 15 15 15 15 14 12 11 11 11 10 10 10 10 8 7 6 8 7 3 8 2 1 6 4
11 14 15 17 21 23 16 12 11 8 8 11 14 16 17 15 15 15 16 16 15 15 16 15 14 14 12 12 12 10 9 7 7 8 5 6 5 6 16 11 7 12 8 7
16 13 17 19 20 21 13 10 10 12 14 16 17 17 18 17 16 15 16 16 15 16 14 14 12 12 10 9 10 10 8 11 9 7 7 5 8 6 7 6 10 13 11 13
23 21 17 18 12 5 11 13 13 16 16 17 18 18 17 16 15 15 14 15 15 14 14 13 12 11 10 8 5 6 8 7 6 7 8 7 6 6 6 8 8 7 10 9
23 22 20 20 13 11 12 17 19 19 18 18 17 17 17 16 15 13 12 12 13 13 12 12 12 10 8 8 6 7 8 8 8 6 7 9 8 8 10 8 8 9 10 8
22 26 17 22 13 15 17 19 19 19 19 18 17 16 16 15 14 12 12 12 11 10 11 10 9 9 6 5 5 5 4 7 2 7 3 1 4 2 3 6 9 10 10 11
22 20 24 16 17 19 19 18 19 18 17 16 15 16 15 14 13 12 10 9 10 10 10 9 9 7 5 4 6 5 8 5 2 5 8 8 7 6 6 6 6 9 10 12
15 20 14 15 18 20 20 18 16 16 15 16 16 15 14 13 12 11 10 10 10 9 9 9 8 7 5 4 4 2 4 10 7 8 7 3 5 10 8 7 9 8 9 13
21 17 8 11 15 16 16 16 15 14 14 14 13 13 11 11 10 9 9 9 10 9 8 7 5 3 5 4 6 4 3 3 5 4 1 4 3 3 4 5 7 9 12 11
11 12 16 16 15 16 15 13 14 13 11 11 11 11 10 9 9 9 9 8 4 7 12 9 8 5 6 4 5 6 3 4 4 4 2 4 4 5 4 6 9 10 10 11
17 18 19 17 15 14 12 11 12 11 8 8 8 8 8 7 7 7 7 7 10 7 9 6 5 6 6 3 6 8 5 4 1 4 3 6 5 3 4 7 6 6 8 9
12 14 13 12 13 14 12 11 10 9 9 8 6 6 6 6 5 6 1 2 9 7 7 6 4 8 6 3 4 6 5 4 2 1 1 4 4 4 6 9 10 9 10 11
11 10 13 14 12 12 12 10 9 11 11 6 7 6 2 4 4 5 7 6 7 5 3 7 8 5 1 6 5 5 4 2 3 0 5 4 8 7 6 7 9 9 9 11
8 8 9 10 11 9 10 9 11 10 9 9 8 4 3 3 5 3 6 9 10 5 3 6 6 1 5 7 7 10 6 5 5 1 6 3 7 7 9 10 9 11 9 9
8 7 10 10 9 7 9 8 8 8 8 9 7 5 4 4 2 4 5 6 6 4 7 6 2 5 8 4 5 7 9 6 9 7 6 3 8 8 9 10 10 10 12 11
9 8 6 7 7 6 6 5 6 6 4 6 5 4 5 4 5 3 5 7 5 4 7 7 8 7 6 4 4 5 6 7 6 6 7 8 7 9 8 7 10 10 8 7
8 3 4 5 9 7 6 5 6 5 5 6 6 4 2 4 5 1 3 7 6 7 6 8 6 5 2 5 4 4 4 7 6 4 7 7 6 5 5 6 7 7 7 7
Wind_Direction
233 256 222 200 219 231 234 235 240 234 239 239 228 248 226 235 256 253 261 210 239 224 210 195 185 192 201 194 188 186 185 190 198 200 207 209 192 205 201 194 205 195 194 198
240 234 251 253 218 219 233 232 233 244 255 253 241 244 238 238 242 259 253 253 229 214 207 199 198 198 192 184 182 176 181 190 191 191 194 189 182 194 191 187 159 192 218 202
235 229 238 242 238 225 220 236 228 236 241 248 258 260 242 247 251 252 249 259 217 206 202 198 197 193 190 181 172 173 177 186 178 178 157 161 169 162 175 155 177 193 202 204
229 222 226 247 234 237 241 234 232 235 242 243 252 261 252 237 256 257 262 262 282 191 189 191 193 186 181 175 171 173 172 173 155 157 156 159 163 156 162 176 185 184 197 196
228 230 238 240 236 221 225 239 243 240 243 242 252 253 247 256 256 257 247 276 287 238 178 178 186 176 169 167 169 167 167 147 159 164 162 165 172 176 177 176 177 171 183 180
215 232 229 226 225 233 259 249 226 239 249 243 229 237 242 240 241 245 242 222 238 169 165 169 172 174 165 162 164 159 153 159 168 173 172 168 170 175 172 159 165 178 163 176
230 242 246 258 248 234 224 253 234 227 235 235 237 244 250 268 55 57 120 152 154 167 160 162 158 160 162 157 150 151 149 149 164 163 159 162 165 149 140 171 167 164 181 166
226 233 237 255 260 258 298 220 268 285 255 249 234 234 132 126 107 125 142 126 145 134 123 141 151 147 149 135 128 130 133 138 140 132 134 130 124 127 157 185 165 187 172 172
232 225 261 250 253 285 266 346 304 341 289 279 276 133 144 129 128 133 135 120 121 130 131 133 137 120 110 112 125 127 121 101 99 115 121 135 138 154 157 184 183 191 174 213
231 224 238 245 266 261 268 288 290 284 278 255 183 147 143 140 139 135 128 128 127 129 122 114 114 111 110 119 118 117 119 119 143 134 151 154 164 172 173 176 197 201 175 196
235 246 254 223 241 251 250 238 267 263 227 181 152 148 142 131 126 124 120 123 127 128 121 114 112 106 105 114 116 110 110 115 128 130 149 102 56 18 354 67 17 344 194 143
244 237 245 258 225 231 236 261 243 215 161 151 149 139 136 137 136 137 129 124 125 126 123 119 116 115 115 115 114 116 116 130 134 136 118 116 130 111 51 45 51 64 329 98
315 351 327 311 278 240 226 237 194 158 150 139 136 139 136 129 127 124 127 127 122 116 115 112 111 109 107 115 133 135 134 135 149 155 171 161 182 156 127 69 60 49 91 109
309 308 294 288 275 244 188 179 160 142 143 136 129 127 131 127 140 125 122 120 118 116 113 113 107 102 108 104 103 109 127 128 144 176 162 177 167 176 159 163 153 119 72 106
282 284 273 272 259 209 187 161 146 142 137 136 140 136 137 128 120 117 111 114 116 118 116 113 118 119 123 124 123 153 153 188 196 185 151 164 171 193 194 159 139 131 128 112
282 288 253 245 206 180 159 155 153 145 141 138 136 130 125 121 123 123 126 120 134 119 114 117 112 112 131 117 171 158 110 31 19 102 114 167 99 242 206 161 151 145 158 149
273 281 258 198 190 164 176 159 145 141 133 133 129 128 128 127 128 132 133 130 125 132 130 126 116 115 117 170 235 172 143 148 343 269 179 169 173 178 155 172 184 160 165 154
259 266 229 162 170 167 154 143 136 135 135 133 130 129 135 139 129 140 136 138 137 141 125 122 128 134 130 144 265 202 262 153 181 244 127 133 226 162 167 173 175 174 134 132
246 237 162 143 125 117 117 114 116 123 123 127 127 117 116 126 127 130 138 148 151 143 119 122 97 154 117 60 306 225 200 220 159 212 84 94 179 134 181 159 158 154 132 151
115 111 93 91 97 112 117 118 112 105 107 116 125 129 125 123 125 130 138 153 131 129 131 145 191 136 131 130 270 274 168 214 203 167 54 110 72 155 148 171 157 158 156 160
72 89 99 97 97 109 117 117 105 99 104 111 116 126 127 124 142 141 164 161 117 152 125 164 238 151 166 137 228 237 157 212 256 20 75 130 173 188 156 143 126 126 121 111
80 84 94 101 99 89 83 86 88 95 98 95 109 128 136 149 156 176 110 33 128 188 188 169 162 67 58 230 251 54 69 54 47 352 228 86 123 203 129 129 134 141 150 155
64 78 83 81 85 88 86 85 87 89 81 78 103 101 125 120 173 178 187 132 138 179 256 82 94 96 286 240 126 126 137 186 143 137 74 137 162 164 160 135 150 148 149 156
55 75 90 93 89 86 90 91 84 87 103 103 88 89 54 123 136 82 90 78 80 60 138 105 120 221 288 262 169 164 162 127 127 237 110 222 149 129 142 148 155 160 137 172
123 109 105 101 95 94 104 109 105 109 104 101 114 114 112 59 86 92 113 119 125 243 117 105 156 257 250 171 154 126 136 151 171 172 134 128 132 134 146 153 154 161 177 199
100 91 76 56 85 102 110 79 81 100 102 116 93 80 84 88 106 131 133 147 159 168 151 157 183 212 199 172 155 156 119 113 159 160 152 167 177 160 178 168 162 174 176 168
124 57 82 82 88 65 65 71 105 105 133 140 124 119 124 108 102 355 259 160 180 153 181 177 180 239 207 150 196 190 171 157 33 163 169 154 169 185 175 158 153 175 167 159